Вернуться в каталог

STARLINK-37802

АктивенСвязьSSO
NORAD 69318·PAYLOAD·🇺🇸 United States

Запущен May 30, 2026 с Vandenberg Space Force Base

Loading…

Ближайшие Пролёты (ближайшие 24 часа)

TLE

СвежийSource: CelesTrak SupGP

Эпоха: Sep 15, 2026, 03:57 UTC

1 69318C 26119Y   26258.16506944 -.00055714  00000+0 -17296-2 0  2582
2 69318  97.2827 283.0512 0001250  90.6929 159.1998 15.33465453    10

Отслеживайте STARLINK-37802 в реальном времени с AllMySat

Download on the App Store